Location: Atlanta
(33.7490°N, 84.3880°W)
Time: 21:00:45
(UTC-04:00)

Daily predictions for brighter satellites

Satellite Brightness Start Highest point End
(mag) Time Altitude Azimuth Time Altitude Azimuth Time Altitude Azimuth
Meteor 2-4 Rocket 4.2 20:30:15 10° N 20:35:48 43° ENE 20:41:23 10° SSE
Cosmos 2278 4.4 20:32:11 10° SSE 20:37:05 31° ESE 20:42:01 10° NE
Tiangong 1 3.1 20:37:06 10° WNW 20:39:47 26° NNW 20:42:27 10° NE
NOAA 12 4.5 20:34:53 10° S 20:40:06 70° WSW 20:45:19 10° NNW
ATLAS 2AS CENTAUR R/B 4.2 20:33:54 10° NW 20:41:16 43° WSW 20:48:05 10° S
DELTA 2 R/B (1) 4.4 20:36:44 10° W 20:42:07 47° N 20:47:28 10° ENE
SJ-6B 4.3 20:40:39 10° SSW 20:44:08 38° W 20:47:39 10° NNW
Myojo/LAPS 4.0 20:43:26 10° WSW 20:46:11 25° S 20:48:08 11° ESE
USA 186 3.2 20:44:28 10° ESE 20:46:52 20° ENE 20:49:11 10° NNE
H-2A R/B 3.6 20:45:14 10° SE 20:48:38 31° ENE 20:52:05 10° N
OTV 4 1.8 20:46:25 10° WNW 20:49:09 33° N 20:51:53 10° ENE
Cosmos 2369 4.2 20:44:51 10° SSE 20:49:56 36° ESE 20:55:04 10° NE
CZ-4B DEB 3.0 20:46:52 10° SSE 20:50:02 52° ENE 20:53:15 10° N
ATLAS CENTAUR R/B 4.4 20:47:27 10° WSW 20:51:37 25° NW 20:55:45 10° N
EP 2 4.4 20:49:27 10° SW 20:52:05 73° WNW 20:54:44 10° NNE
Delta 2 Rocket 4.2 20:46:48 10° W 20:52:30 72° N 20:57:38 10° E
Meteor 1-23 Rocket 4.4 20:47:22 10° N 20:52:54 55° E 20:58:29 10° SSE
Cosmos 1544 Rocket 3.6 20:49:09 10° S 20:53:24 55° E 20:57:42 10° NNE
ATLAS 3B CENTAUR R/B 1.6 20:52:54 10° SW 20:54:22 17° S 20:55:18 13° SSE
OAO 2 Rocket 3.5 20:54:15 10° WSW 20:59:09 57° SSE 21:03:59 11° E
FengYun 1-2 T 4.3 20:56:05 10° SSE 21:01:44 90° WSW 21:07:24 10° NNW
CZ-2D R/B 3.4 20:59:46 10° SSE 21:03:31 54° ENE 21:07:18 10° N
Cosmos 968 Rocket 3.6 20:59:50 10° NNW 21:04:58 79° WSW 21:10:03 10° S
GOES 2 Rocket 4.2 21:05:41 10° WSW 21:09:21 30° SSW 21:12:13 16° SE
Hubble Space Telescope 1.6 21:06:00 10° WSW 21:09:51 36° S 21:12:19 19° SE
ERS-1 Rocket 4.1 21:07:32 16° ESE 21:10:19 25° ENE 21:14:23 10° NNE
Cosmos 1821 Rocket 4.0 21:05:07 10° S 21:11:15 84° W 21:17:23 10° N
Cosmos 1605 Rocket 4.1 21:07:56 10° SSE 21:14:07 57° E 21:20:16 10° NNE
Cosmos 1536 4.4 21:10:51 10° SSW 21:14:34 38° W 21:18:19 10° N
BREEZE-M DEB (TANK) 4.0 21:04:31 10° NW 21:14:46 49° SW 21:17:55 12° SSE
Cosmos 1346 Rocket 2.9 21:15:17 10° N 21:19:08 52° E 21:21:51 18° SSE
Meteor 2-16 Rocket 4.4 21:13:07 10° S 21:19:11 90° WNW 21:25:17 10° N
Cosmos 2227 Rocket 2.6 21:24:12 10° N 21:29:37 45° ENE 21:32:24 26° ESE
Meteor 1-5 Rocket 4.4 21:25:37 10° SSW 21:30:52 67° W 21:36:15 10° N
ALOS 2.7 21:26:22 10° S 21:30:58 61° W 21:35:37 10° NNW
FENGYUN 3A 3.9 21:26:18 10° S 21:31:38 70° W 21:36:58 10° NNW
Cosmos 1500 4.2 21:34:20 27° ENE 21:34:20 27° ENE 21:36:57 10° NNE
Cosmos 1656 3.7 21:32:57 10° S 21:38:26 53° ESE 21:43:51 10° NNE
OE (NEXTSAT) 4.3 21:36:12 10° NW 21:39:47 80° NE 21:40:31 53° ESE
Cosmos 1777 Rocket 4.5 21:36:59 10° NNW 21:42:10 61° WSW 21:46:53 13° S
Cosmos 2082 3.8 21:36:46 10° N 21:42:16 54° ENE 21:44:33 33° SE
Cosmos 2297 Rocket 2.6 21:40:06 10° N 21:45:28 43° ENE 21:47:09 34° ESE
Cosmos 2123 Rocket 4.0 21:40:46 10° N 21:46:56 79° W 21:53:06 10° S
H-2A R/B 3.1 21:49:23 28° ENE 21:49:23 28° ENE 21:52:26 10° NNE
Lacrosse 5 4.0 21:47:23 10° N 21:50:01 14° NNE 21:51:36 12° NE
SPOT 5 3.8 21:52:31 31° ENE 21:52:43 31° ENE 21:57:04 10° N
deb Chang Zheng 4 3.7 21:52:45 10° NNE 21:57:04 53° E 21:57:04 53° E
Cosmos 1626 Rocket 3.4 21:52:58 10° N 21:57:23 80° E 21:58:23 53° SSE
Cosmos 1975 3.1 21:55:16 16° SSW 21:58:25 70° W 22:02:31 10° N
Cosmos 1515 4.1 21:55:59 10° N 21:59:10 49° NE 21:59:10 49° NE
Cosmos 1459 Rocket 4.0 21:59:01 39° SE 22:00:47 52° E 22:06:39 10° NNE
Cosmos 1602 Rocket 3.5 22:00:52 10° N 22:05:20 82° W 22:06:23 52° S
NOSS 3-4 (A) 3.9 22:00:00 10° NNW 22:07:09 79° WSW 22:10:47 34° SSE
NOSS 3-4 (C) 3.9 22:00:07 10° NNW 22:07:16 80° WSW 22:10:52 34° SSE
Nimbus 7 Rocket 4.3 22:02:59 10° NNE 22:09:02 71° ESE 22:12:29 27° S
Envisat 2.8 22:11:14 59° SSE 22:12:12 82° ENE 22:17:18 10° N
Cosmos 1461 2.9 22:10:08 10° NNW 22:13:43 69° NW 22:13:43 69° NW
CZ-4 DEB 4.2 22:14:52 35° WNW 22:14:52 35° WNW 22:17:23 10° NNW
Lacrosse 5 rocket 2.6 22:11:03 10° NNW 22:13:22 28° N 22:13:22 28° N
Cosmos 1066 Rocket 4.2 22:09:40 10° N 22:15:20 68° E 22:16:06 60° SE
MetOp-A 4.4 22:15:54 48° ENE 22:15:54 48° ENE 22:20:55 10° N
Tiangong 1 3.8 22:15:01 10° NW 22:16:48 15° N 22:16:48 15° N
Cosmos 1697 Rocket 2.6 22:15:21 10° SSW 22:21:00 87° WNW 22:26:41 10° NNE
Cosmos 1937 Rocket 4.3 22:16:48 10° N 22:21:02 38° NE 22:21:02 38° NE
Cosmos 1802 Rocket 3.9 22:20:59 55° SSE 22:22:17 68° E 22:28:40 10° NNE
OTV 4 3.2 22:22:51 10° WNW 22:23:53 19° WNW 22:23:53 19° WNW
Cosmos 2150 Rocket 4.1 22:22:43 10° N 22:27:17 59° NE 22:27:17 59° NE
Cosmos 1939 Rocket 3.6 22:28:30 50° W 22:28:30 50° W 22:32:26 10° NNW
DELTA 2 R/B (1) 3.9 22:23:41 10° WNW 22:29:09 55° NNE 22:29:48 52° NE
ASTEX 1 4.0 22:29:23 10° N 22:33:04 48° NNE 22:33:04 48° NNE
Delta 2 Rocket 4.1 22:30:06 10° WNW 22:34:44 62° WSW 22:34:44 62° WSW
Terra 4.3 22:40:15 11° NNE 22:40:15 11° NNE 22:40:40 10° NNE
Cosmos 1980 Rocket 2.6 22:44:07 51° NNE 22:44:07 51° NNE 22:48:20 10° NNE
Cosmos 2016 Rocket 3.8 22:43:28 84° ENE 22:43:28 84° ENE 22:49:34 10° N
OAO 2 Rocket 3.8 22:38:50 10° W 22:42:57 58° WNW 22:42:57 58° WNW
ARGOS 3.9 22:49:32 42° NNE 22:49:32 42° NNE 22:53:18 10° N
Hubble Space Telescope 3.7 22:47:38 10° WSW 22:47:42 10° WSW 22:47:42 10° WSW
Cosmos 1898 Rocket 4.1 22:50:27 10° NNW 22:54:53 56° WNW 22:54:53 56° WNW
Cosmos 2227 Rocket 4.2 23:09:15 10° NW 23:13:15 20° W 23:14:15 19° WSW
Cosmos 2263 Rocket 4.5 23:13:30 10° NNE 23:14:41 13° NNE 23:14:41 13° NNE
CZ-3 Stage 3 4.5 22:55:30 10° WNW 23:21:43 44° SW 23:21:57 44° SW
Milstar 3 Cent rocket 3.8 23:10:27 10° W 23:26:27 60° SSW 23:26:27 60° SSW
USA 215 3.8 23:29:23 50° N 23:29:23 50° N 23:34:41 10° NW
Cosmos 2297 Rocket 4.1 23:25:02 10° NW 23:28:59 21° W 23:28:59 21° W
Lacrosse 5 3.9 23:28:40 10° NW 23:30:48 25° NNW 23:30:48 25° NNW
H-2A R/B 4.2 23:50:51 20° NNW 23:50:51 20° NNW 23:52:24 10° NNW
